SCP
0 0 0 0 0 0 0 0 0 0 0 0 0 0 0 0 0 1 0 0 0 0 0 0 0 0 0 0 0 0 0 0 0 0 0 0 0 0 0 0 0 0 0 0
0 0 0 0 0 0 0 0 0 0 0 0 0 1 1 1 1 1 1 0 0 1 1 0 0 0 0 0 0 0 0 0 1 1 1 0 0 0 0 0 0 0 0 0
0 0 0 0 0 0 0 0 0 0 0 0 1 1 1 1 1 1 1 1 1 1 1 1 1 1 1 1 1 1 0 0 1 1 0 0 0 0 0 0 0 0 0 0
0 0 0 0 0 0 0 0 0 0 0 1 1 1 1 1 1 1 1 1 1 1 1 1 1 1 1 1 1 1 0 0 0 0 0 0 0 0 0 0 0 0 0 0
0 0 0 0 0 0 0 0 0 0 1 1 1 1 1 1 1 1 1 1 1 1 1 1 1 1 1 1 1 1 0 0 0 0 0 0 0 0 0 0 0 0 0 0
0 0 0 0 0 0 0 0 0 0 1 1 1 1 1 1 1 1 1 1 1 1 1 1 1 1 1 1 1 0 0 0 0 0 0 0 0 0 0 0 0 0 0 0
0 0 0 0 0 0 0 0 0 1 1 1 1 1 1 1 1 1 1 1 1 1 1 1 1 1 1 0 0 0 0 0 0 0 0 0 0 0 0 0 0 0 0 0
0 0 0 0 0 0 0 0 1 1 1 1 1 1 1 1 1 0 0 0 0 0 0 0 0 0 0 0 0 0 0 0 0 0 0 0 0 0 0 0 0 0 0 0
0 0 0 0 0 0 0 0 0 1 1 1 1 1 0 0 0 0 0 0 0 0 0 0 0 0 0 0 0 0 0 0 0 0 0 0 0 0 0 0 0 0 0 0
0 0 0 0 0 0 0 0 0 0 0 0 0 0 0 0 0 0 0 0 0 0 0 0 0 0 0 0 0 0 0 0 0 0 0 0 0 0 0 0 0 0 0 0
0 0 0 0 0 0 0 0 0 0 0 0 0 0 0 0 0 0 0 0 0 0 0 0 0 0 0 0 0 0 0 0 0 0 0 0 0 0 0 0 0 0 0 0
0 0 0 0 0 0 0 0 0 0 0 0 0 0 0 0 0 0 0 0 0 0 0 0 0 0 0 0 0 0 0 0 0 0 0 0 0 0 0 0 0 0 0 0
0 0 0 0 0 0 0 0 0 0 0 0 0 0 0 0 0 0 0 0 0 0 0 0 0 0 0 0 0 0 0 0 0 0 0 0 0 0 0 0 0 0 0 0
0 0 0 0 0 0 0 0 0 0 0 0 0 0 0 0 0 0 0 0 0 0 0 0 0 0 0 0 0 0 0 0 0 0 0 0 0 0 0 0 0 0 0 0
0 0 0 0 0 0 0 0 0 0 0 0 0 0 0 0 0 0 0 0 0 0 0 0 0 0 0 0 0 0 0 0 0 0 0 0 0 0 0 0 0 0 0 0
0 0 0 0 0 0 0 0 0 0 0 0 0 0 0 0 0 0 0 0 0 0 0 0 0 0 0 0 0 0 0 0 0 0 0 0 0 0 0 0 0 0 0 0
0 0 0 0 0 0 0 0 0 0 0 0 0 0 0 0 0 0 0 0 0 0 0 0 0 0 0 0 0 0 0 0 0 0 0 0 0 0 0 0 0 0 0 0
0 0 0 0 0 0 0 0 0 0 0 0 0 0 0 0 0 0 0 0 0 0 0 0 0 0 0 0 0 0 0 0 0 0 0 0 0 0 0 0 0 0 0 0
0 0 0 0 0 0 0 0 0 0 0 0 0 0 0 0 0 0 0 0 0 0 0 0 0 0 0 0 0 0 0 0 0 0 0 0 0 0 0 0 0 0 0 0
0 0 0 0 0 0 0 0 0 0 0 0 0 0 0 0 0 0 0 0 0 0 0 0 0 0 0 0 0 0 0 0 0 0 0 0 0 0 0 0 0 0 0 0
0 0 0 0 0 0 0 0 0 0 0 0 0 0 0 0 0 0 0 0 0 0 0 0 0 0 0 0 0 0 0 0 0 0 0 0 0 0 0 0 0 0 0 0
0 0 0 0 0 0 0 0 0 0 0 0 0 0 0 0 0 0 0 0 0 0 0 0 0 0 0 0 0 0 0 0 0 0 0 0 0 0 0 0 0 0 0 0
0 0 0 0 0 0 0 0 0 0 0 0 0 0 0 0 0 0 0 0 0 0 0 0 0 0 0 0 0 0 0 0 0 0 0 0 0 0 0 0 0 0 0 0
0 0 0 0 0 0 0 0 0 0 0 0 0 0 0 0 0 0 0 0 0 0 0 0 0 0 0 0 0 0 0 0 0 0 0 0 0 0 0 0 0 0 0 0
0 0 0 0 0 0 0 0 0 0 0 0 0 0 0 0 0 0 0 0 0 0 0 0 0 0 0 0 0 0 0 0 0 0 0 0 0 0 0 0 0 0 0 0
0 0 0 0 0 0 0 0 0 0 0 0 0 0 0 0 0 0 0 0 0 0 0 0 0 0 0 0 0 0 0 0 0 0 0 0 0 0 0 0 0 0 0 0
0 0 0 0 0 0 0 0 0 0 0 0 0 0 0 0 0 0 0 0 0 0 0 0 0 0 0 0 0 0 0 0 0 0 0 0 0 0 0 0 0 0 0 0
Wind_Speed
11 9 9 11 12 12 14 15 15 12 10 5 4 5 6 7 8 8 8 9 9 8 7 7 7 7 7 7 8 9 9 9 9 8 8 7 7 6 6 6 6 6 6 5
12 12 12 14 15 15 16 16 16 14 12 4 4 6 7 8 8 8 8 8 8 8 8 7 6 6 7 7 7 8 8 7 7 7 7 6 6 6 5 5 4 4 4 4
13 11 12 17 16 17 17 16 16 16 11 5 6 6 7 8 8 8 8 7 7 7 7 6 6 6 7 7 8 8 7 7 7 7 6 6 5 5 5 4 3 3 3 2
11 10 17 9 5 10 14 15 14 12 6 5 5 7 6 5 7 9 9 8 8 8 8 8 8 8 8 9 9 8 8 7 7 7 7 6 5 4 4 3 3 3 3 3
9 14 14 10 6 7 10 13 10 10 7 7 10 10 7 6 7 8 9 9 8 9 9 9 9 10 10 11 10 9 9 8 7 7 7 7 7 6 5 5 5 5 5 6
10 12 13 5 1 4 8 11 5 5 7 11 12 8 7 8 9 10 10 9 9 10 11 11 10 10 12 11 11 10 10 9 8 8 8 8 8 7 7 7 7 7 8 8
13 13 9 3 3 4 9 4 4 3 6 11 9 3 13 13 12 11 11 11 11 12 11 11 10 11 13 12 11 10 10 10 10 10 10 10 9 8 8 8 9 9 9 9
9 11 8 4 3 5 6 8 6 3 4 6 10 16 16 15 13 13 13 13 13 12 12 11 11 13 14 13 11 11 11 12 11 10 10 9 9 8 8 8 9 8 8 7
6 6 4 5 6 8 8 9 6 2 4 11 15 16 16 15 14 14 13 13 13 14 13 12 11 12 14 12 11 12 12 12 11 11 10 9 9 8 7 6 6 6 5 5
8 8 8 9 8 7 7 7 4 3 9 13 17 17 16 14 14 14 14 13 13 14 14 13 12 12 12 11 11 12 12 11 10 10 10 9 7 7 7 6 6 5 5 5
9 8 8 6 5 5 4 0 5 8 11 15 18 18 16 15 14 14 13 12 13 14 14 14 13 12 12 11 11 11 11 10 10 10 10 9 10 10 9 10 9 7 6 6
6 6 5 5 5 3 2 5 9 12 14 16 17 18 17 15 14 14 13 13 13 14 14 14 13 12 11 10 10 9 9 8 7 7 7 8 9 10 15 12 13 14 14 10
5 4 3 3 4 4 6 8 11 13 17 18 17 17 17 16 14 13 14 14 13 14 13 13 12 12 10 9 9 9 8 7 6 6 6 5 5 6 7 8 10 11 11 11
2 1 1 4 6 8 12 14 15 17 17 17 17 16 16 16 14 14 13 12 13 13 12 12 12 11 9 9 8 8 8 7 5 5 5 5 4 4 4 3 4 6 8 7
2 4 7 9 10 12 13 15 18 17 18 17 15 16 16 15 14 13 12 12 12 12 11 11 11 9 7 8 8 7 6 6 5 5 4 4 4 4 4 4 4 3 3 5
7 10 11 13 13 13 15 16 18 17 16 17 15 14 14 13 13 12 11 10 11 11 10 9 9 8 6 6 6 6 7 7 4 3 4 4 4 4 4 4 4 4 4 5
9 11 13 14 14 14 15 15 16 16 16 16 15 14 13 13 12 11 10 10 10 9 8 8 7 6 6 5 4 4 5 6 2 2 4 4 4 4 4 4 4 3 4 6
10 11 13 14 15 15 15 15 15 15 15 15 14 13 13 12 11 10 10 10 9 9 8 7 6 6 6 5 4 3 3 3 3 4 4 4 4 3 3 3 3 4 3 3
14 14 14 14 14 14 15 15 14 14 13 13 13 12 11 10 10 9 9 8 8 8 7 7 4 5 6 5 2 2 3 3 4 4 4 3 1 3 3 3 4 4 4 5
15 15 15 15 15 14 14 14 14 13 11 11 12 11 11 10 9 8 8 7 6 6 6 5 4 4 5 4 3 2 3 3 3 3 2 2 3 3 3 3 4 4 4 5
15 16 16 16 15 14 13 13 12 12 11 10 10 10 10 9 8 7 6 7 7 6 5 4 2 3 3 2 2 2 3 3 3 3 2 2 3 3 3 4 4 4 4 5
14 14 15 14 14 13 11 11 11 11 10 9 10 10 9 8 7 6 5 5 6 3 2 3 4 6 4 2 1 3 4 3 3 3 3 3 3 3 3 3 4 4 4 4
12 12 13 13 12 12 12 10 10 9 9 9 8 7 6 5 4 4 5 5 5 2 1 5 8 5 2 1 3 3 4 3 3 3 3 3 3 3 3 3 3 4 4 5
11 12 11 11 11 11 10 10 9 8 8 8 7 6 5 4 4 4 6 7 5 3 4 8 6 2 4 1 3 3 3 3 3 2 2 3 3 3 3 3 4 4 4 5
11 11 11 10 10 8 9 9 8 7 7 6 7 6 4 3 4 5 6 7 7 5 6 7 5 3 2 3 3 3 3 4 3 3 3 3 3 3 3 3 3 3 4 4
9 8 8 7 6 5 5 5 5 5 5 5 4 4 4 4 5 5 5 7 8 5 5 5 5 5 3 4 4 3 3 4 3 2 3 3 3 3 3 3 3 3 4 4
9 8 6 6 6 5 5 4 4 4 4 4 4 4 3 3 4 4 5 5 5 5 4 4 4 3 4 4 4 3 3 3 2 2 2 2 2 2 2 2 3 3 3 3
Wind_Direction
268 277 266 255 244 233 236 253 263 265 262 246 189 172 161 159 158 156 152 153 151 147 147 151 154 158 163 168 170 172 174 175 176 181 183 184 189 195 196 203 211 214 217 221
258 256 257 256 251 247 245 250 256 262 265 267 147 157 160 163 162 159 153 151 147 143 142 146 147 150 152 153 155 158 162 163 162 163 166 167 169 172 175 183 197 202 208 210
257 254 259 250 246 247 248 247 249 254 257 200 176 166 162 162 160 153 145 139 136 136 136 137 138 139 137 135 135 136 138 146 147 147 148 151 158 163 164 167 176 183 184 181
261 255 250 255 270 264 260 257 255 257 245 203 169 132 122 140 149 143 138 132 127 126 125 124 123 121 121 120 119 118 116 119 128 130 131 133 133 131 131 129 124 118 101 91
256 250 253 251 251 262 262 260 256 246 217 171 135 130 117 112 121 124 121 118 117 116 114 112 111 112 111 108 106 104 101 99 102 108 109 108 106 102 96 94 90 86 80 74
245 254 254 260 327 293 267 254 252 237 198 171 171 187 142 126 116 111 108 106 106 106 105 103 105 109 106 102 99 95 92 90 88 90 96 95 91 87 86 87 85 82 75 68
244 248 255 338 346 270 245 281 351 265 204 189 199 128 122 125 114 110 107 106 104 101 97 98 103 103 98 94 90 91 91 89 85 85 87 89 90 90 93 93 91 88 84 77
243 244 241 33 315 279 321 337 319 279 199 160 119 114 122 120 115 113 110 107 104 99 94 93 97 99 96 91 92 92 89 86 83 81 82 86 89 90 92 98 100 96 92 86
269 278 340 330 301 301 297 292 293 258 148 135 129 127 123 120 116 112 109 106 103 101 96 91 90 93 94 94 97 95 91 87 85 83 81 83 87 90 92 89 89 91 90 85
268 270 289 298 297 295 285 277 269 165 140 136 130 127 124 120 116 113 110 108 107 102 96 92 90 90 93 98 99 97 96 95 94 91 85 75 67 68 67 64 72 74 70 70
268 281 290 286 309 316 322 31 128 127 130 131 128 126 124 119 115 111 107 104 103 101 98 96 94 91 91 93 95 96 95 95 94 89 85 78 66 49 57 51 38 41 50 49
283 301 298 316 348 13 72 115 123 124 121 121 124 123 120 115 112 110 108 106 104 100 97 95 93 89 86 87 91 95 98 97 97 99 99 103 102 87 58 67 67 61 49 44
279 298 320 358 33 58 89 104 111 115 118 118 118 118 116 113 113 111 108 106 103 100 98 96 92 87 84 83 85 85 87 86 90 93 99 100 104 111 113 101 87 79 73 63
241 217 86 72 82 91 97 100 101 104 108 112 114 114 112 111 110 109 108 108 106 103 100 97 91 84 83 84 85 89 92 88 86 87 83 81 78 78 81 91 109 107 104 95
81 98 102 96 94 100 105 108 108 108 110 110 111 113 114 115 114 112 112 112 110 106 102 98 91 83 79 85 87 84 82 81 75 79 81 77 74 71 68 63 63 64 77 112
111 109 107 103 101 104 106 107 109 112 114 115 114 114 115 114 114 114 114 115 111 104 100 96 91 86 80 83 91 93 85 63 51 80 82 77 66 59 57 53 52 47 38 29
125 120 117 114 111 109 109 111 115 118 118 118 119 120 120 119 117 115 113 108 102 100 98 95 91 87 85 81 79 87 96 105 134 82 66 55 53 52 49 39 36 34 50 55
109 112 113 115 117 116 116 118 119 120 120 122 124 126 127 125 122 120 116 112 108 100 92 91 89 92 89 80 68 77 98 98 78 65 69 54 41 49 47 43 36 23 29 89
107 108 109 111 116 118 118 118 118 119 122 126 127 125 125 123 123 123 124 122 119 110 98 94 98 107 96 81 59 103 88 91 85 77 79 96 55 48 41 35 28 22 15 12
108 109 110 111 111 112 114 116 118 119 122 124 124 123 122 121 123 123 121 109 93 96 111 108 120 102 104 89 312 91 81 79 83 86 73 59 53 48 39 30 22 19 16 13
114 114 112 110 110 111 113 116 118 119 122 124 124 124 123 124 126 128 128 115 103 100 112 131 127 104 91 97 243 97 95 87 87 78 67 58 51 44 35 24 18 17 14 8
111 112 111 111 112 111 111 113 114 117 119 121 124 125 127 128 128 120 101 99 116 121 163 130 95 69 47 295 112 88 86 82 75 70 62 53 51 43 35 21 16 17 11 5
111 112 112 112 112 112 112 113 115 116 117 118 120 124 125 121 127 130 119 112 121 128 108 80 87 92 312 256 85 86 85 83 75 72 65 56 51 41 34 26 23 16 9 4
113 111 111 113 113 113 112 110 109 110 113 115 115 118 125 130 124 106 102 110 106 120 97 98 115 130 258 149 100 93 89 85 78 72 68 59 47 40 36 28 24 20 14 6
112 113 115 119 116 112 113 116 115 116 117 113 115 116 110 102 106 106 113 120 128 142 122 125 146 206 220 94 95 93 85 63 43 31 61 51 39 41 37 33 25 16 12 8
108 106 99 92 93 107 118 119 119 120 118 116 113 111 109 110 115 120 127 131 132 132 132 141 154 187 138 111 102 100 111 126 135 98 58 49 49 44 40 29 21 13 10 7
109 107 106 100 94 87 88 92 94 94 95 102 108 106 108 114 121 126 131 135 141 144 141 144 140 132 119 117 118 117 106 96 85 74 74 65 50 42 42 24 6 4 353 358